Time,TemperatureF,DewpointF,PressureIn,WindDirection,WindDirectionDegrees,WindSpeedMPH,WindSpeedGustMPH,Humidity,HourlyPrecipIn,Conditions,Clouds,dailyrainin,SoftwareType,DateUTC
2013-03-15 00:00:00,30.4,10.9,30.27,WNW,301,2.8,4.9,41,0.00,,,0.00,WSDL version 420,2013-03-15 04:00:00,
2013-03-15 00:05:00,30.1,10.5,30.27,WNW,293,1.3,4.9,38,0.00,,,0.00,WSDL version 420,2013-03-15 04:05:00,
2013-03-15 00:10:00,30.3,10.3,30.27,West,259,2.1,3.6,39,0.00,,,0.00,WSDL version 420,2013-03-15 04:10:00,
2013-03-15 00:15:00,30.4,10.3,30.27,NW,308,2.0,3.4,39,0.00,,,0.00,WSDL version 420,2013-03-15 04:15:00,
2013-03-15 00:20:00,30.1,10.5,30.26,SW,233,1.1,3.4,40,0.00,,,0.00,WSDL version 420,2013-03-15 04:20:00,
2013-03-15 00:25:00,30.0,10.8,30.26,WSW,248,2.3,4.3,40,0.00,,,0.00,WSDL version 420,2013-03-15 04:25:00,
2013-03-15 00:30:00,29.7,11.0,30.26,SW,223,2.8,4.9,41,0.00,,,0.00,WSDL version 420,2013-03-15 04:30:00,
2013-03-15 00:35:00,29.6,11.1,30.26,WNW,290,2.5,4.9,41,0.00,,,0.00,WSDL version 420,2013-03-15 04:35:00,
2013-03-15 00:40:00,29.7,11.1,30.26,WNW,303,0.6,4.7,41,0.00,,,0.00,WSDL version 420,2013-03-15 04:40:00,
2013-03-15 00:45:00,29.5,11.0,30.26,West,267,2.3,4.3,41,0.00,,,0.00,WSDL version 420,2013-03-15 04:45:00,
2013-03-15 00:50:00,29.5,11.0,30.26,West,280,3.0,5.6,41,0.00,,,0.00,WSDL version 420,2013-03-15 04:50:00,
2013-03-15 00:55:00,29.8,11.2,30.26,West,273,1.0,5.6,41,0.00,,,0.00,WSDL version 420,2013-03-15 04:55:00,
2013-03-15 01:00:00,29.9,11.3,30.26,WNW,293,3.1,5.4,41,0.00,,,0.00,WSDL version 420,2013-03-15 05:00:00,
2013-03-15 01:05:00,30.3,11.1,30.29,West,263,3.1,7.4,40,0.00,,,0.00,WSDL version 420,2013-03-15 05:05:00,
2013-03-15 01:10:00,31.0,11.4,30.29,West,260,3.7,7.4,40,0.00,,,0.00,WSDL version 420,2013-03-15 05:10:00,
2013-03-15 01:15:00,31.5,10.8,30.29,West,270,3.7,6.5,37,0.00,,,0.00,WSDL version 420,2013-03-15 05:15:00,
2013-03-15 01:20:00,31.9,11.4,30.25,WNW,293,2.7,6.5,39,0.00,,,0.00,WSDL version 420,2013-03-15 05:20:00,
2013-03-15 01:25:00,32.0,11.7,30.25,West,280,1.2,6.5,38,0.00,,,0.00,WSDL version 420,2013-03-15 05:25:00,
2013-03-15 01:30:00,32.2,9.5,30.25,WSW,248,1.1,4.3,37,0.00,,,0.00,WSDL version 420,2013-03-15 05:30:00,
2013-03-15 01:35:00,32.7,9.1,30.25,SW,220,2.0,4.9,36,0.00,,,0.00,WSDL version 420,2013-03-15 05:35:00,
2013-03-15 01:40:00,33.1,9.3,30.25,East,95,0.9,4.9,36,0.00,,,0.00,WSDL version 420,2013-03-15 05:40:00,
2013-03-15 01:45:00,33.4,9.3,30.25,SW,214,1.8,4.0,35,0.00,,,0.00,WSDL version 420,2013-03-15 05:45:00,
2013-03-15 01:50:00,33.6,9.5,30.25,WSW,243,1.4,4.0,36,0.00,,,0.00,WSDL version 420,2013-03-15 05:50:00,
2013-03-15 01:55:00,33.6,9.1,30.25,West,259,1.1,4.0,36,0.00,,,0.00,WSDL version 420,2013-03-15 05:55:00,
2013-03-15 02:00:00,33.5,9.1,30.25,SW,218,2.8,5.8,35,0.00,,,0.00,WSDL version 420,2013-03-15 06:00:00,
2013-03-15 02:05:00,33.6,9.4,30.25,SE,135,1.6,5.8,36,0.00,,,0.00,WSDL version 420,2013-03-15 06:05:00,
2013-03-15 02:10:00,33.6,9.5,30.25,West,264,2.2,4.9,36,0.00,,,0.00,WSDL version 420,2013-03-15 06:10:00,
2013-03-15 02:15:00,33.6,9.6,30.24,NW,320,2.1,4.9,36,0.00,,,0.00,WSDL version 420,2013-03-15 06:15:00,
2013-03-15 02:20:00,33.5,10.0,30.24,West,270,3.5,6.0,38,0.00,,,0.00,WSDL version 420,2013-03-15 06:20:00,
2013-03-15 02:25:00,33.6,10.2,30.25,South,185,1.6,6.0,36,0.00,,,0.00,WSDL version 420,2013-03-15 06:25:00,
2013-03-15 02:30:00,33.9,10.0,30.24,West,259,1.3,4.9,37,0.00,,,0.00,WSDL version 420,2013-03-15 06:30:00,
2013-03-15 02:35:00,33.7,10.2,30.21,WNW,288,3.9,5.8,37,0.00,,,0.00,WSDL version 420,2013-03-15 06:35:00,
2013-03-15 02:40:00,33.6,10.4,30.21,West,267,2.9,5.8,38,0.00,,,0.00,WSDL version 420,2013-03-15 06:40:00,
2013-03-15 02:45:00,33.6,10.7,30.21,WSW,240,2.6,5.6,38,0.00,,,0.00,WSDL version 420,2013-03-15 06:45:00,
2013-03-15 02:50:00,33.8,11.7,30.24,WNW,283,1.5,5.6,40,0.00,,,0.00,WSDL version 420,2013-03-15 06:50:00,
2013-03-15 02:55:00,33.7,11.9,30.24,SW,236,4.7,7.6,40,0.00,,,0.00,WSDL version 420,2013-03-15 06:55:00,
2013-03-15 03:00:00,33.8,12.1,30.25,WSW,250,3.3,7.6,40,0.00,,,0.00,WSDL version 420,2013-03-15 07:00:00,
2013-03-15 03:05:00,33.6,12.3,30.21,West,264,3.6,5.6,40,0.00,,,0.00,WSDL version 420,2013-03-15 07:05:00,
2013-03-15 03:10:00,33.5,12.3,30.21,WNW,285,3.4,5.6,41,0.00,,,0.00,WSDL version 420,2013-03-15 07:10:00,
2013-03-15 03:15:00,33.6,12.4,30.21,West,280,4.2,8.9,41,0.00,,,0.00,WSDL version 420,2013-03-15 07:15:00,
2013-03-15 03:20:00,33.7,12.5,30.21,SSW,200,3.3,8.9,41,0.00,,,0.00,WSDL version 420,2013-03-15 07:20:00,
2013-03-15 03:25:00,33.8,12.6,30.21,WSW,238,3.3,7.6,41,0.00,,,0.00,WSDL version 420,2013-03-15 07:25:00,
2013-03-15 03:30:00,33.8,13.1,30.21,WSW,239,1.9,6.0,42,0.00,,,0.00,WSDL version 420,2013-03-15 07:30:00,
2013-03-15 03:35:00,33.7,13.2,30.21,East,95,1.6,6.0,42,0.00,,,0.00,WSDL version 420,2013-03-15 07:35:00,
2013-03-15 03:40:00,33.4,13.3,30.21,WSW,256,3.5,6.0,43,0.00,,,0.00,WSDL version 420,2013-03-15 07:40:00,
2013-03-15 03:45:00,33.3,13.5,30.21,West,268,4.3,7.4,44,0.00,,,0.00,WSDL version 420,2013-03-15 07:45:00,
2013-03-15 03:50:00,33.4,14.3,30.21,West,264,2.6,7.4,45,0.00,,,0.00,WSDL version 420,2013-03-15 07:50:00,
2013-03-15 03:55:00,33.2,13.3,30.21,WSW,250,2.8,8.7,44,0.00,,,0.00,WSDL version 420,2013-03-15 07:55:00,
2013-03-15 04:00:00,33.1,13.8,30.21,WNW,295,3.2,8.7,45,0.00,,,0.00,WSDL version 420,2013-03-15 08:00:00,
2013-03-15 04:05:00,33.1,14.1,30.21,SW,236,2.7,6.5,45,0.00,,,0.00,WSDL version 420,2013-03-15 08:05:00,
2013-03-15 04:10:00,33.0,14.0,30.21,WSW,253,3.7,6.7,45,0.00,,,0.00,WSDL version 420,2013-03-15 08:10:00,
2013-03-15 04:15:00,32.8,15.6,30.21,West,278,2.2,6.7,49,0.00,,,0.00,WSDL version 420,2013-03-15 08:15:00,
2013-03-15 04:20:00,32.9,16.0,30.18,West,281,3.1,6.0,50,0.00,,,0.00,WSDL version 420,2013-03-15 08:20:00,
2013-03-15 04:25:00,32.9,16.7,30.18,West,259,3.5,6.0,51,0.00,,,0.00,WSDL version 420,2013-03-15 08:25:00,
2013-03-15 04:30:00,33.0,16.8,30.18,SSW,195,1.2,6.0,51,0.00,,,0.00,WSDL version 420,2013-03-15 08:30:00,
2013-03-15 04:35:00,33.2,17.4,30.21,NW,320,2.9,4.7,53,0.00,,,0.00,WSDL version 420,2013-03-15 08:35:00,
2013-03-15 04:40:00,33.6,18.3,30.21,NNE,14,1.6,4.7,53,0.00,,,0.00,WSDL version 420,2013-03-15 08:40:00,
2013-03-15 04:45:00,33.4,18.1,30.21,NNW,329,2.7,4.0,53,0.00,,,0.00,WSDL version 420,2013-03-15 08:45:00,
2013-03-15 04:50:00,33.3,18.2,30.18,East,84,1.5,4.0,54,0.00,,,0.00,WSDL version 420,2013-03-15 08:50:00,
2013-03-15 04:55:00,33.5,19.2,30.18,West,267,1.3,4.9,55,0.00,,,0.00,WSDL version 420,2013-03-15 08:55:00,
2013-03-15 05:00:00,33.3,19.1,30.18,WNW,302,1.7,4.9,55,0.00,,,0.00,WSDL version 420,2013-03-15 09:00:00,
2013-03-15 05:05:00,33.4,19.3,30.22,WNW,285,3.8,8.5,57,0.00,,,0.00,WSDL version 420,2013-03-15 09:05:00,
2013-03-15 05:10:00,33.9,20.0,30.22,NNE,18,0.9,8.5,55,0.00,,,0.00,WSDL version 420,2013-03-15 09:10:00,
2013-03-15 05:15:00,33.7,19.5,30.22,East,101,1.5,3.1,57,0.00,,,0.00,WSDL version 420,2013-03-15 09:15:00,
2013-03-15 05:20:00,33.5,19.8,30.21,WNW,293,1.7,3.1,56,0.00,,,0.00,WSDL version 420,2013-03-15 09:20:00,
2013-03-15 05:25:00,33.3,19.8,30.22,WNW,287,2.8,3.8,60,0.00,,,0.00,WSDL version 420,2013-03-15 09:25:00,
2013-03-15 05:30:00,33.6,21.4,30.21,West,281,1.8,3.8,61,0.00,,,0.00,WSDL version 420,2013-03-15 09:30:00,
2013-03-15 05:35:00,33.7,20.6,30.21,West,270,2.7,4.3,58,0.00,,,0.00,WSDL version 420,2013-03-15 09:35:00,
2013-03-15 05:40:00,34.2,22.2,30.21,WSW,239,3.0,8.5,63,0.00,,,0.00,WSDL version 420,2013-03-15 09:40:00,
2013-03-15 05:45:00,34.9,23.5,30.21,WSW,245,5.3,10.1,61,0.00,,,0.00,WSDL version 420,2013-03-15 09:45:00,
2013-03-15 05:50:00,35.1,23.2,30.21,West,270,2.7,10.1,61,0.00,,,0.00,WSDL version 420,2013-03-15 09:50:00,
2013-03-15 05:55:00,35.4,23.1,30.21,West,278,3.3,8.7,60,0.00,,,0.00,WSDL version 420,2013-03-15 09:55:00,
2013-03-15 06:00:00,35.4,22.3,30.21,West,270,3.9,8.7,58,0.00,,,0.00,WSDL version 420,2013-03-15 10:00:00,
2013-03-15 06:05:00,35.4,22.3,30.21,West,278,5.4,9.8,58,0.00,,,0.00,WSDL version 420,2013-03-15 10:05:00,
2013-03-15 06:10:00,35.3,21.7,30.21,West,267,3.9,9.8,57,0.00,,,0.00,WSDL version 420,2013-03-15 10:10:00,
2013-03-15 06:15:00,35.1,21.5,30.22,West,273,4.4,6.9,58,0.00,,,0.00,WSDL version 420,2013-03-15 10:15:00,
2013-03-15 06:20:00,35.2,21.9,30.22,West,268,3.6,7.2,58,0.00,,,0.00,WSDL version 420,2013-03-15 10:20:00,
2013-03-15 06:25:00,35.1,21.5,30.22,WSW,238,3.8,7.2,57,0.00,,,0.00,WSDL version 420,2013-03-15 10:25:00,
2013-03-15 06:30:00,35.0,21.3,30.22,WNW,303,2.7,5.6,57,0.00,,,0.00,WSDL version 420,2013-03-15 10:30:00,
2013-03-15 06:35:00,35.1,21.4,30.22,NNW,341,2.1,5.4,57,0.00,,,0.00,WSDL version 420,2013-03-15 10:35:00,
2013-03-15 06:40:00,35.4,21.9,30.22,WNW,303,2.6,5.4,58,0.00,,,0.00,WSDL version 420,2013-03-15 10:40:00,
2013-03-15 06:45:00,35.2,21.5,30.22,WNW,301,1.3,5.6,57,0.00,,,0.00,WSDL version 420,2013-03-15 10:45:00,
2013-03-15 06:50:00,35.0,21.2,30.22,WNW,298,0.9,5.6,56,0.00,,,0.00,WSDL version 420,2013-03-15 10:50:00,
2013-03-15 06:55:00,34.8,21.4,30.22,WSW,248,3.6,5.4,59,0.00,,,0.00,WSDL version 420,2013-03-15 10:55:00,
2013-03-15 07:00:00,34.6,21.2,30.22,NW,318,3.0,5.4,58,0.00,,,0.00,WSDL version 420,2013-03-15 11:00:00,
2013-03-15 07:05:00,34.5,21.1,30.22,West,264,2.7,5.4,57,0.00,,,0.00,WSDL version 420,2013-03-15 11:05:00,
2013-03-15 07:10:00,34.4,20.8,30.22,NNW,343,1.8,5.4,58,0.00,,,0.00,WSDL version 420,2013-03-15 11:10:00,
2013-03-15 07:15:00,34.5,21.1,30.22,WSW,253,2.7,4.9,58,0.00,,,0.00,WSDL version 420,2013-03-15 11:15:00,
2013-03-15 07:20:00,34.3,21.0,30.22,West,270,4.2,6.0,57,0.00,,,0.00,WSDL version 420,2013-03-15 11:20:00,
2013-03-15 07:25:00,34.4,21.1,30.22,WNW,293,3.3,6.0,58,0.00,,,0.00,WSDL version 420,2013-03-15 11:25:00,
2013-03-15 07:30:00,34.3,20.9,30.22,West,276,2.8,5.6,57,0.00,,,0.00,WSDL version 420,2013-03-15 11:30:00,
2013-03-15 07:35:00,34.3,20.9,30.23,WNW,290,3.0,5.6,57,0.00,,,0.00,WSDL version 420,2013-03-15 11:35:00,
2013-03-15 07:40:00,34.6,21.1,30.23,WNW,283,3.7,5.6,57,0.00,,,0.00,WSDL version 420,2013-03-15 11:40:00,
2013-03-15 07:45:00,34.7,21.1,30.23,West,264,2.6,5.4,57,0.00,,,0.00,WSDL version 420,2013-03-15 11:45:00,
2013-03-15 07:50:00,34.9,21.0,30.23,WSW,255,2.8,5.4,56,0.00,,,0.00,WSDL version 420,2013-03-15 11:50:00,
2013-03-15 07:55:00,34.8,20.7,30.23,West,267,3.5,6.5,56,0.00,,,0.00,WSDL version 420,2013-03-15 11:55:00,
2013-03-15 08:00:00,34.5,20.3,30.23,West,270,3.0,6.5,56,0.00,,,0.00,WSDL version 420,2013-03-15 12:00:00,
2013-03-15 08:05:00,34.1,19.9,30.23,WNW,283,2.4,5.8,55,0.00,,,0.00,WSDL version 420,2013-03-15 12:05:00,
2013-03-15 08:10:00,33.8,19.7,30.23,WNW,284,4.8,6.5,57,0.00,,,0.00,WSDL version 420,2013-03-15 12:10:00,
2013-03-15 08:15:00,33.8,19.8,30.23,West,270,3.2,6.5,56,0.00,,,0.00,WSDL version 420,2013-03-15 12:15:00,
2013-03-15 08:20:00,33.7,19.8,30.26,West,262,4.4,5.8,56,0.00,,,0.00,WSDL version 420,2013-03-15 12:20:00,
2013-03-15 08:25:00,33.6,19.8,30.26,WNW,285,3.6,5.4,56,0.00,,,0.00,WSDL version 420,2013-03-15 12:25:00,
2013-03-15 08:30:00,33.4,19.6,30.27,West,270,4.6,6.0,57,0.00,,,0.00,WSDL version 420,2013-03-15 12:30:00,
2013-03-15 08:35:00,33.5,19.8,30.23,West,280,4.4,6.0,56,0.00,,,0.00,WSDL version 420,2013-03-15 12:35:00,
2013-03-15 08:40:00,33.7,19.9,30.23,West,275,3.8,5.4,56,0.00,,,0.00,WSDL version 420,2013-03-15 12:40:00,
2013-03-15 08:45:00,34.4,20.5,30.23,West,267,3.5,4.7,56,0.00,,,0.00,WSDL version 420,2013-03-15 12:45:00,
2013-03-15 08:50:00,35.5,21.3,30.23,West,268,3.4,4.5,56,0.00,,,0.00,WSDL version 420,2013-03-15 12:50:00,
2013-03-15 08:55:00,36.0,21.4,30.23,West,267,2.7,4.9,54,0.00,,,0.00,WSDL version 420,2013-03-15 12:55:00,
2013-03-15 09:00:00,36.2,21.2,30.23,West,264,2.6,4.9,54,0.00,,,0.00,WSDL version 420,2013-03-15 13:00:00,
2013-03-15 09:05:00,36.7,21.6,30.26,West,276,2.8,4.7,54,0.00,,,0.00,WSDL version 420,2013-03-15 13:05:00,
2013-03-15 09:10:00,37.2,21.7,30.26,WSW,248,2.5,4.0,52,0.00,,,0.00,WSDL version 420,2013-03-15 13:10:00,
2013-03-15 09:15:00,37.8,21.7,30.26,West,260,2.8,4.3,52,0.00,,,0.00,WSDL version 420,2013-03-15 13:15:00,
2013-03-15 09:20:00,38.8,22.1,30.22,West,264,2.5,4.3,50,0.00,,,0.00,WSDL version 420,2013-03-15 13:20:00,
2013-03-15 09:25:00,39.9,22.8,30.22,West,280,2.4,4.5,50,0.00,,,0.00,WSDL version 420,2013-03-15 13:25:00,
2013-03-15 09:30:00,40.3,22.7,30.22,WSW,248,2.8,4.5,48,0.00,,,0.00,WSDL version 420,2013-03-15 13:30:00,
2013-03-15 09:35:00,40.4,21.9,30.22,WSW,243,4.0,6.0,46,0.00,,,0.00,WSDL version 420,2013-03-15 13:35:00,
2013-03-15 09:40:00,39.9,20.7,30.22,WSW,248,2.8,6.0,46,0.00,,,0.00,WSDL version 420,2013-03-15 13:40:00,
2013-03-15 09:45:00,40.3,21.0,30.22,SW,228,3.2,5.4,46,0.00,,,0.00,WSDL version 420,2013-03-15 13:45:00,
2013-03-15 09:50:00,40.7,21.0,30.22,WSW,238,3.9,5.4,45,0.00,,,0.00,WSDL version 420,2013-03-15 13:50:00,
2013-03-15 09:55:00,41.1,21.0,30.22,SW,218,3.4,6.0,44,0.00,,,0.00,WSDL version 420,2013-03-15 13:55:00,
2013-03-15 10:00:00,41.5,21.4,30.22,WSW,258,3.1,6.0,44,0.00,,,0.00,WSDL version 420,2013-03-15 14:00:00,
2013-03-15 10:05:00,42.0,21.7,30.22,West,264,3.3,6.0,44,0.00,,,0.00,WSDL version 420,2013-03-15 14:05:00,
2013-03-15 10:10:00,43.1,22.3,30.22,SW,230,4.2,6.5,43,0.00,,,0.00,WSDL version 420,2013-03-15 14:10:00,
2013-03-15 10:15:00,43.8,22.4,30.22,WSW,256,3.6,7.2,42,0.00,,,0.00,WSDL version 420,2013-03-15 14:15:00,
2013-03-15 10:20:00,44.6,22.6,30.21,WSW,243,3.1,7.2,41,0.00,,,0.00,WSDL version 420,2013-03-15 14:20:00,
2013-03-15 10:25:00,45.0,22.4,30.21,WSW,238,3.9,5.8,40,0.00,,,0.00,WSDL version 420,2013-03-15 14:25:00,
2013-03-15 10:30:00,45.7,22.8,30.21,SW,231,3.5,6.3,40,0.00,,,0.00,WSDL version 420,2013-03-15 14:30:00,
2013-03-15 10:35:00,46.4,23.1,30.21,SW,228,4.2,7.2,39,0.00,,,0.00,WSDL version 420,2013-03-15 14:35:00,
2013-03-15 10:40:00,46.8,22.9,30.21,WNW,286,3.5,7.2,38,0.00,,,0.00,WSDL version 420,2013-03-15 14:40:00,
2013-03-15 10:45:00,47.1,22.8,30.21,SW,228,3.8,6.5,38,0.00,,,0.00,WSDL version 420,2013-03-15 14:45:00,
2013-03-15 10:50:00,47.3,23.0,30.21,WSW,244,3.1,6.0,38,0.00,,,0.00,WSDL version 420,2013-03-15 14:50:00,
2013-03-15 10:55:00,48.6,24.1,30.21,South,185,2.5,6.3,37,0.00,,,0.00,WSDL version 420,2013-03-15 14:55:00,
2013-03-15 11:00:00,49.2,24.2,30.21,NW,308,3.5,6.5,37,0.00,,,0.00,WSDL version 420,2013-03-15 15:00:00,
2013-03-15 11:05:00,49.5,24.4,30.24,West,278,2.3,6.5,37,0.00,,,0.00,WSDL version 420,2013-03-15 15:05:00,
2013-03-15 11:10:00,50.3,24.9,30.24,NW,309,1.2,4.3,37,0.00,,,0.00,WSDL version 420,2013-03-15 15:10:00,
2013-03-15 11:15:00,50.2,24.3,30.24,SW,236,2.2,4.0,36,0.00,,,0.00,WSDL version 420,2013-03-15 15:15:00,
2013-03-15 11:20:00,50.9,25.1,30.21,NW,310,3.5,6.0,36,0.00,,,0.00,WSDL version 420,2013-03-15 15:20:00,
2013-03-15 11:25:00,51.5,25.1,30.20,NW,315,3.5,6.5,34,0.00,,,0.00,WSDL version 420,2013-03-15 15:25:00,
2013-03-15 11:30:00,51.6,24.3,30.20,WSW,243,2.8,6.5,34,0.00,,,0.00,WSDL version 420,2013-03-15 15:30:00,
2013-03-15 11:35:00,52.1,25.5,30.20,West,276,2.1,5.4,35,0.00,,,0.00,WSDL version 420,2013-03-15 15:35:00,
2013-03-15 11:40:00,52.3,24.6,30.20,NNW,332,2.1,4.9,34,0.00,,,0.00,WSDL version 420,2013-03-15 15:40:00,
2013-03-15 11:45:00,52.3,24.2,30.20,SE,135,2.0,4.9,33,0.00,,,0.00,WSDL version 420,2013-03-15 15:45:00,
2013-03-15 11:50:00,52.9,25.8,30.20,West,259,1.1,4.3,36,0.00,,,0.00,WSDL version 420,2013-03-15 15:50:00,
2013-03-15 11:55:00,53.7,25.3,30.20,South,178,1.9,4.9,33,0.00,,,0.00,WSDL version 420,2013-03-15 15:55:00,
2013-03-15 12:00:00,54.6,25.3,30.20,NNW,332,3.9,5.8,30,0.00,,,0.00,WSDL version 420,2013-03-15 16:00:00,
2013-03-15 12:05:00,54.8,25.0,30.17,SW,233,3.1,6.5,30,0.00,,,0.00,WSDL version 420,2013-03-15 16:05:00,
2013-03-15 12:10:00,54.8,25.2,30.17,NNW,333,3.0,6.5,31,0.00,,,0.00,WSDL version 420,2013-03-15 16:10:00,
2013-03-15 12:15:00,55.2,25.9,30.17,SSW,203,1.5,5.6,32,0.00,,,0.00,WSDL version 420,2013-03-15 16:15:00,
2013-03-15 12:20:00,55.6,25.4,30.17,SSE,163,1.9,6.0,30,0.00,,,0.00,WSDL version 420,2013-03-15 16:20:00,
2013-03-15 12:25:00,55.9,26.4,30.17,SE,141,2.2,6.0,32,0.00,,,0.00,WSDL version 420,2013-03-15 16:25:00,
2013-03-15 12:30:00,56.7,26.8,30.16,South,188,1.3,3.8,30,0.00,,,0.00,WSDL version 420,2013-03-15 16:30:00,
2013-03-15 12:35:00,56.8,26.2,30.17,SW,236,3.1,4.9,31,0.00,,,0.00,WSDL version 420,2013-03-15 16:35:00,
2013-03-15 12:40:00,56.7,25.8,30.16,North,350,1.4,5.4,31,0.00,,,0.00,WSDL version 420,2013-03-15 16:40:00,
2013-03-15 12:45:00,57.5,26.0,30.16,NNE,23,2.6,5.4,29,0.00,,,0.00,WSDL version 420,2013-03-15 16:45:00,
2013-03-15 12:50:00,57.4,25.6,30.16,SW,236,3.7,6.0,29,0.00,,,0.00,WSDL version 420,2013-03-15 16:50:00,
2013-03-15 12:55:00,57.8,26.3,30.16,North,353,2.1,6.0,30,0.00,,,0.00,WSDL version 420,2013-03-15 16:55:00,
2013-03-15 13:00:00,58.5,26.3,30.16,North,354,2.3,5.6,29,0.00,,,0.00,WSDL version 420,2013-03-15 17:00:00,
2013-03-15 13:05:00,58.7,26.6,30.16,WSW,239,2.9,5.4,29,0.00,,,0.00,WSDL version 420,2013-03-15 17:05:00,
2013-03-15 13:10:00,59.5,27.3,30.16,West,270,1.1,4.3,29,0.00,,,0.00,WSDL version 420,2013-03-15 17:10:00,
2013-03-15 13:15:00,60.0,27.5,30.16,West,270,3.2,6.0,29,0.00,,,0.00,WSDL version 420,2013-03-15 17:15:00,
2013-03-15 13:20:00,60.2,26.9,30.12,NW,321,1.2,6.5,27,0.00,,,0.00,WSDL version 420,2013-03-15 17:20:00,
2013-03-15 13:25:00,60.8,26.6,30.12,SE,127,3.5,6.5,27,0.00,,,0.00,WSDL version 420,2013-03-15 17:25:00,
2013-03-15 13:30:00,60.8,26.6,30.12,SE,135,1.7,6.3,27,0.00,,,0.00,WSDL version 420,2013-03-15 17:30:00,
2013-03-15 13:35:00,61.4,26.8,30.12,ENE,68,1.7,6.0,27,0.00,,,0.00,WSDL version 420,2013-03-15 17:35:00,
2013-03-15 13:40:00,61.7,27.3,30.12,West,263,5.0,7.4,27,0.00,,,0.00,WSDL version 420,2013-03-15 17:40:00,
2013-03-15 13:45:00,62.1,27.0,30.12,West,270,1.3,7.4,26,0.00,,,0.00,WSDL version 420,2013-03-15 17:45:00,
2013-03-15 13:50:00,62.5,27.3,30.11,SW,228,3.2,7.6,26,0.00,,,0.00,WSDL version 420,2013-03-15 17:50:00,
2013-03-15 13:55:00,62.3,27.0,30.12,WSW,253,3.0,7.6,26,0.00,,,0.00,WSDL version 420,2013-03-15 17:55:00,
2013-03-15 14:00:00,63.2,27.8,30.11,WNW,283,1.5,5.6,26,0.00,,,0.00,WSDL version 420,2013-03-15 18:00:00,
2013-03-15 14:05:00,63.6,27.4,30.11,SSE,165,3.9,6.3,25,0.00,,,0.00,WSDL version 420,2013-03-15 18:05:00,
2013-03-15 14:10:00,63.2,27.4,30.12,WNW,286,2.6,6.3,26,0.00,,,0.00,WSDL version 420,2013-03-15 18:10:00,
2013-03-15 14:15:00,64.4,28.2,30.11,North,349,2.8,6.3,25,0.00,,,0.00,WSDL version 420,2013-03-15 18:15:00,
2013-03-15 14:20:00,64.1,27.2,30.08,ENE,59,2.9,6.3,24,0.00,,,0.00,WSDL version 420,2013-03-15 18:20:00,
2013-03-15 14:25:00,64.3,27.4,30.08,WSW,248,3.9,7.4,25,0.00,,,0.00,WSDL version 420,2013-03-15 18:25:00,
2013-03-15 14:30:00,64.3,27.6,30.08,SSW,203,2.2,7.4,25,0.00,,,0.00,WSDL version 420,2013-03-15 18:30:00,
2013-03-15 14:35:00,64.3,27.5,30.08,SW,228,3.9,8.1,25,0.00,,,0.00,WSDL version 420,2013-03-15 18:35:00,
2013-03-15 14:40:00,64.5,27.2,30.08,WNW,295,2.3,8.1,24,0.00,,,0.00,WSDL version 420,2013-03-15 18:40:00,
2013-03-15 14:45:00,64.8,27.5,30.08,WSW,242,3.7,6.3,24,0.00,,,0.00,WSDL version 420,2013-03-15 18:45:00,
2013-03-15 14:50:00,64.5,26.9,30.08,South,175,2.5,6.3,24,0.00,,,0.00,WSDL version 420,2013-03-15 18:50:00,
2013-03-15 14:55:00,65.4,28.1,30.08,WNW,296,2.6,8.9,25,0.00,,,0.00,WSDL version 420,2013-03-15 18:55:00,
2013-03-15 15:00:00,66.0,28.2,30.08,WNW,283,2.9,8.9,24,0.00,,,0.00,WSDL version 420,2013-03-15 19:00:00,
2013-03-15 15:05:00,65.2,27.5,30.08,SE,138,4.3,8.5,24,0.00,,,0.00,WSDL version 420,2013-03-15 19:05:00,
2013-03-15 15:10:00,65.9,28.0,30.08,SW,231,1.8,8.5,24,0.00,,,0.00,WSDL version 420,2013-03-15 19:10:00,
2013-03-15 15:15:00,67.0,28.3,30.08,WSW,243,3.9,8.5,23,0.00,,,0.00,WSDL version 420,2013-03-15 19:15:00,
2013-03-15 15:20:00,67.7,28.6,30.04,NNW,340,4.4,10.3,23,0.00,,,0.00,WSDL version 420,2013-03-15 19:20:00,
2013-03-15 15:25:00,67.9,28.7,30.04,West,278,2.8,10.3,23,0.00,,,0.00,WSDL version 420,2013-03-15 19:25:00,
2013-03-15 15:30:00,68.1,28.8,30.04,WNW,298,6.0,9.6,23,0.00,,,0.00,WSDL version 420,2013-03-15 19:30:00,
2013-03-15 15:35:00,67.9,28.6,30.04,NNW,335,3.6,9.6,22,0.00,,,0.00,WSDL version 420,2013-03-15 19:35:00,
2013-03-15 15:40:00,68.1,27.8,30.04,SSE,158,2.3,6.5,22,0.00,,,0.00,WSDL version 420,2013-03-15 19:40:00,
2013-03-15 15:45:00,67.6,28.0,30.04,South,172,2.8,5.8,23,0.00,,,0.00,WSDL version 420,2013-03-15 19:45:00,
2013-03-15 15:50:00,67.6,28.5,30.04,SSE,151,1.2,5.8,23,0.00,,,0.00,WSDL version 420,2013-03-15 19:50:00,
2013-03-15 15:55:00,67.4,28.3,30.04,NW,315,3.6,7.6,23,0.00,,,0.00,WSDL version 420,2013-03-15 19:55:00,
2013-03-15 16:00:00,67.3,28.2,30.04,SSE,158,2.3,7.6,23,0.00,,,0.00,WSDL version 420,2013-03-15 20:00:00,
2013-03-15 16:05:00,66.7,27.7,30.04,WSW,248,3.5,7.2,23,0.00,,,0.00,WSDL version 420,2013-03-15 20:05:00,
2013-03-15 16:10:00,66.2,27.3,30.04,SSE,163,1.7,5.8,23,0.00,,,0.00,WSDL version 420,2013-03-15 20:10:00,
2013-03-15 16:15:00,66.5,27.6,30.04,East,79,1.6,5.4,23,0.00,,,0.00,WSDL version 420,2013-03-15 20:15:00,
2013-03-15 16:20:00,66.2,27.4,30.04,ESE,118,0.0,4.3,23,0.00,,,0.00,WSDL version 420,2013-03-15 20:20:00,
2013-03-15 16:25:00,66.0,27.2,30.04,SSE,163,1.1,5.6,23,0.00,,,0.00,WSDL version 420,2013-03-15 20:25:00,
2013-03-15 16:30:00,65.8,27.0,30.05,SE,135,1.8,6.0,23,0.00,,,0.00,WSDL version 420,2013-03-15 20:30:00,
2013-03-15 16:35:00,65.3,26.6,30.05,North,6,4.3,7.6,23,0.00,,,0.00,WSDL version 420,2013-03-15 20:35:00,
2013-03-15 16:40:00,64.8,26.2,30.05,SW,225,3.4,8.5,23,0.00,,,0.00,WSDL version 420,2013-03-15 20:40:00,
2013-03-15 16:45:00,65.2,26.5,30.05,SSW,208,4.9,8.7,23,0.00,,,0.00,WSDL version 420,2013-03-15 20:45:00,
2013-03-15 16:50:00,65.0,26.3,30.05,SSW,195,2.6,8.7,23,0.00,,,0.00,WSDL version 420,2013-03-15 20:50:00,
2013-03-15 16:55:00,65.1,26.4,30.05,SE,124,4.1,9.8,23,0.00,,,0.00,WSDL version 420,2013-03-15 20:55:00,
2013-03-15 17:00:00,65.0,26.4,30.05,NE,37,3.1,9.8,23,0.00,,,0.00,WSDL version 420,2013-03-15 21:00:00,
2013-03-15 17:05:00,65.1,26.4,30.05,SE,132,2.7,6.5,23,0.00,,,0.00,WSDL version 420,2013-03-15 21:05:00,
2013-03-15 17:10:00,65.3,26.6,30.05,NW,304,3.5,7.6,23,0.00,,,0.00,WSDL version 420,2013-03-15 21:10:00,
2013-03-15 17:15:00,64.7,26.1,30.05,SSW,208,3.0,8.7,23,0.00,,,0.00,WSDL version 420,2013-03-15 21:15:00,
2013-03-15 17:20:00,64.7,26.1,30.01,West,276,3.0,8.7,23,0.00,,,0.00,WSDL version 420,2013-03-15 21:20:00,
2013-03-15 17:25:00,64.7,26.1,30.01,South,188,4.0,5.4,23,0.00,,,0.00,WSDL version 420,2013-03-15 21:25:00,
2013-03-15 17:30:00,64.6,26.0,30.01,NNW,328,1.2,5.4,23,0.00,,,0.00,WSDL version 420,2013-03-15 21:30:00,
2013-03-15 17:35:00,64.3,25.8,30.01,North,3,3.1,5.6,23,0.00,,,0.00,WSDL version 420,2013-03-15 21:35:00,
2013-03-15 17:40:00,64.0,25.5,30.01,SE,129,1.2,5.6,23,0.00,,,0.00,WSDL version 420,2013-03-15 21:40:00,
2013-03-15 17:45:00,63.7,25.3,30.01,West,260,6.0,10.7,23,0.00,,,0.00,WSDL version 420,2013-03-15 21:45:00,
2013-03-15 17:50:00,63.4,25.0,30.01,East,90,1.9,10.7,23,0.00,,,0.00,WSDL version 420,2013-03-15 21:50:00,
2013-03-15 17:55:00,63.3,24.9,30.01,East,98,2.1,5.6,23,0.00,,,0.00,WSDL version 420,2013-03-15 21:55:00,
2013-03-15 18:00:00,63.2,24.8,30.01,SW,233,2.3,5.6,23,0.00,,,0.00,WSDL version 420,2013-03-15 22:00:00,
2013-03-15 18:05:00,63.2,24.8,30.05,NNW,334,1.8,6.5,23,0.00,,,0.00,WSDL version 420,2013-03-15 22:05:00,
2013-03-15 18:10:00,63.3,24.5,30.05,East,85,3.6,10.5,21,0.00,,,0.00,WSDL version 420,2013-03-15 22:10:00,
2013-03-15 18:15:00,63.2,22.7,30.05,South,176,2.8,10.5,21,0.00,,,0.00,WSDL version 420,2013-03-15 22:15:00,
2013-03-15 18:20:00,62.9,24.2,30.01,ENE,60,1.4,10.1,23,0.00,,,0.00,WSDL version 420,2013-03-15 22:20:00,
2013-03-15 18:25:00,62.5,24.7,30.01,SE,138,3.4,10.1,24,0.00,,,0.00,WSDL version 420,2013-03-15 22:25:00,
2013-03-15 18:30:00,62.1,24.9,30.02,West,278,3.1,8.1,24,0.00,,,0.00,WSDL version 420,2013-03-15 22:30:00,
2013-03-15 18:35:00,61.9,24.7,30.02,NNE,13,3.3,7.8,24,0.00,,,0.00,WSDL version 420,2013-03-15 22:35:00,
2013-03-15 18:40:00,61.6,24.5,30.02,South,174,0.0,7.8,24,0.00,,,0.00,WSDL version 420,2013-03-15 22:40:00,
2013-03-15 18:45:00,61.0,24.0,30.02,SSE,160,1.2,4.3,24,0.00,,,0.00,WSDL version 420,2013-03-15 22:45:00,
2013-03-15 18:50:00,60.5,24.1,30.02,SW,225,2.4,5.6,24,0.00,,,0.00,WSDL version 420,2013-03-15 22:50:00,
2013-03-15 18:55:00,60.4,24.5,30.02,WNW,288,1.5,5.6,25,0.00,,,0.00,WSDL version 420,2013-03-15 22:55:00,
2013-03-15 19:00:00,60.0,24.1,30.02,SW,236,2.0,5.4,25,0.00,,,0.00,WSDL version 420,2013-03-15 23:00:00,
2013-03-15 19:05:00,59.7,23.9,30.02,ENE,75,0.5,4.0,25,0.00,,,0.00,WSDL version 420,2013-03-15 23:05:00,
2013-03-15 19:10:00,59.6,23.8,30.02,ENE,68,0.6,3.1,25,0.00,,,0.00,WSDL version 420,2013-03-15 23:10:00,
2013-03-15 19:15:00,59.2,23.8,30.02,ENE,68,3.0,4.7,25,0.00,,,0.00,WSDL version 420,2013-03-15 23:15:00,
2013-03-15 19:20:00,58.9,23.7,30.06,SSW,208,0.4,4.7,26,0.00,,,0.00,WSDL version 420,2013-03-15 23:20:00,
2013-03-15 19:25:00,58.5,24.3,30.06,SW,217,1.7,5.8,27,0.00,,,0.00,WSDL version 420,2013-03-15 23:25:00,
2013-03-15 19:30:00,58.0,24.2,30.06,WNW,285,0.6,5.8,27,0.00,,,0.00,WSDL version 420,2013-03-15 23:30:00,
2013-03-15 19:35:00,57.5,24.0,30.06,SW,228,1.9,3.8,27,0.00,,,0.00,WSDL version 420,2013-03-15 23:35:00,
2013-03-15 19:40:00,57.3,25.0,30.06,WSW,248,0.4,3.8,29,0.00,,,0.00,WSDL version 420,2013-03-15 23:40:00,
2013-03-15 19:45:00,57.0,24.8,30.06,West,268,0.0,3.1,29,0.00,,,0.00,WSDL version 420,2013-03-15 23:45:00,
2013-03-15 19:50:00,56.6,25.4,30.06,WSW,239,0.7,4.0,30,0.00,,,0.00,WSDL version 420,2013-03-15 23:50:00,
2013-03-15 19:55:00,56.0,25.3,30.06,West,270,0.0,4.0,31,0.00,,,0.00,WSDL version 420,2013-03-15 23:55:00,
2013-03-15 20:00:00,55.6,26.0,30.06,NNE,25,0.7,3.1,32,0.00,,,0.00,WSDL version 420,2013-03-16 00:00:00,
2013-03-15 20:05:00,55.1,26.5,30.03,WSW,256,0.9,3.4,35,0.00,,,0.00,WSDL version 420,2013-03-16 00:05:00,
2013-03-15 20:10:00,54.0,26.7,30.03,WNW,293,0.7,3.4,35,0.00,,,0.00,WSDL version 420,2013-03-16 00:10:00,
2013-03-15 20:15:00,53.3,26.7,30.03,West,280,1.2,3.4,36,0.00,,,0.00,WSDL version 420,2013-03-16 00:15:00,
2013-03-15 20:20:00,52.8,26.6,30.03,WNW,288,0.0,3.4,36,0.00,,,0.00,WSDL version 420,2013-03-16 00:20:00,
2013-03-15 20:25:00,52.6,26.5,30.03,NW,307,1.0,2.7,36,0.00,,,0.00,WSDL version 420,2013-03-16 00:25:00,
2013-03-15 20:30:00,52.2,26.3,30.03,West,280,1.2,2.9,37,0.00,,,0.00,WSDL version 420,2013-03-16 00:30:00,
2013-03-15 20:35:00,51.8,26.2,30.07,WNW,293,1.8,3.1,37,0.00,,,0.00,WSDL version 420,2013-03-16 00:35:00,
2013-03-15 20:40:00,51.5,26.1,30.07,West,270,0.0,3.1,37,0.00,,,0.00,WSDL version 420,2013-03-16 00:40:00,
2013-03-15 20:45:00,50.9,25.7,30.07,West,259,1.3,2.5,38,0.00,,,0.00,WSDL version 420,2013-03-16 00:45:00,
2013-03-15 20:50:00,50.6,26.0,30.07,West,262,0.6,2.7,38,0.00,,,0.00,WSDL version 420,2013-03-16 00:50:00,
2013-03-15 20:55:00,50.2,25.7,30.07,WNW,283,0.6,2.7,38,0.00,,,0.00,WSDL version 420,2013-03-16 00:55:00,
2013-03-15 21:00:00,49.8,25.7,30.07,West,270,0.0,2.2,39,0.00,,,0.00,WSDL version 420,2013-03-16 01:00:00,
2013-03-15 21:05:00,49.4,25.6,30.07,West,270,1.1,2.5,39,0.00,,,0.00,WSDL version 420,2013-03-16 01:05:00,
2013-03-15 21:10:00,49.1,25.5,30.07,WNW,293,0.0,2.5,40,0.00,,,0.00,WSDL version 420,2013-03-16 01:10:00,
2013-03-15 21:15:00,48.8,25.7,30.07,WNW,283,0.0,2.0,40,0.00,,,0.00,WSDL version 420,2013-03-16 01:15:00,
2013-03-15 21:20:00,48.7,25.6,30.06,West,267,0.4,2.7,40,0.00,,,0.00,WSDL version 420,2013-03-16 01:20:00,
2013-03-15 21:25:00,48.5,25.8,30.06,WNW,290,0.7,2.7,42,0.00,,,0.00,WSDL version 420,2013-03-16 01:25:00,
2013-03-15 21:30:00,48.4,25.9,30.06,WNW,288,1.2,2.7,42,0.00,,,0.00,WSDL version 420,2013-03-16 01:30:00,
2013-03-15 21:35:00,48.2,25.7,30.06,West,270,0.6,2.0,41,0.00,,,0.00,WSDL version 420,2013-03-16 01:35:00,
2013-03-15 21:40:00,48.2,26.3,30.06,SW,215,0.5,2.0,42,0.00,,,0.00,WSDL version 420,2013-03-16 01:40:00,
2013-03-15 21:45:00,48.1,26.3,30.06,West,273,0.5,2.5,42,0.00,,,0.00,WSDL version 420,2013-03-16 01:45:00,
2013-03-15 21:50:00,48.2,26.2,30.06,West,280,0.0,2.5,42,0.00,,,0.00,WSDL version 420,2013-03-16 01:50:00,
2013-03-15 21:55:00,48.4,26.8,30.06,North,352,0.0,2.2,43,0.00,,,0.00,WSDL version 420,2013-03-16 01:55:00,
2013-03-15 22:00:00,48.7,27.7,30.06,WNW,298,0.0,2.5,44,0.00,,,0.00,WSDL version 420,2013-03-16 02:00:00,
2013-03-15 22:05:00,48.6,27.3,30.06,SE,138,0.0,2.5,44,0.00,,,0.00,WSDL version 420,2013-03-16 02:05:00,
2013-03-15 22:10:00,48.4,27.5,30.06,WSW,250,0.0,2.2,44,0.00,,,0.00,WSDL version 420,2013-03-16 02:10:00,
2013-03-15 22:15:00,48.1,27.7,30.06,WNW,293,0.7,2.2,45,0.00,,,0.00,WSDL version 420,2013-03-16 02:15:00,
2013-03-15 22:20:00,48.2,28.2,30.06,WNW,301,0.0,2.2,46,0.00,,,0.00,WSDL version 420,2013-03-16 02:20:00,
2013-03-15 22:25:00,48.2,28.2,30.05,NW,323,0.8,3.4,46,0.00,,,0.00,WSDL version 420,2013-03-16 02:25:00,
2013-03-15 22:31:00,48.2,28.7,30.05,WNW,293,0.0,3.4,47,0.00,,,0.00,WSDL version 420,2013-03-16 02:31:00,
2013-03-15 22:35:00,48.2,28.5,30.05,WNW,293,0.6,2.0,46,0.00,,,0.00,WSDL version 420,2013-03-16 02:35:00,
2013-03-15 22:40:00,48.4,29.3,30.05,NW,312,0.0,2.0,48,0.00,,,0.00,WSDL version 420,2013-03-16 02:40:00,
2013-03-15 22:45:00,48.6,29.3,30.05,South,174,0.4,2.5,47,0.00,,,0.00,WSDL version 420,2013-03-16 02:45:00,
2013-03-15 22:50:00,48.8,29.5,30.05,NW,305,0.0,2.5,47,0.00,,,0.00,WSDL version 420,2013-03-16 02:50:00,
2013-03-15 22:55:00,49.1,30.2,30.05,WNW,293,0.4,2.0,48,0.00,,,0.00,WSDL version 420,2013-03-16 02:55:00,
2013-03-15 23:00:00,49.1,30.3,30.05,West,281,0.0,2.0,48,0.00,,,0.00,WSDL version 420,2013-03-16 03:00:00,
2013-03-15 23:05:00,49.2,30.3,30.05,West,281,0.0,1.3,48,0.00,,,0.00,WSDL version 420,2013-03-16 03:05:00,
2013-03-15 23:10:00,49.4,30.7,30.04,NNE,17,0.0,2.5,48,0.00,,,0.00,WSDL version 420,2013-03-16 03:10:00,
2013-03-15 23:15:00,50.1,31.4,30.04,SW,236,0.6,2.5,48,0.00,,,0.00,WSDL version 420,2013-03-16 03:15:00,
2013-03-15 23:20:00,49.9,31.3,30.01,SSW,203,0.0,2.5,48,0.00,,,0.00,WSDL version 420,2013-03-16 03:20:00,
2013-03-15 23:25:00,49.8,30.9,30.01,North,3,0.6,2.9,48,0.00,,,0.00,WSDL version 420,2013-03-16 03:25:00,
2013-03-15 23:30:00,50.1,31.2,30.01,SSW,211,0.6,2.9,48,0.00,,,0.00,WSDL version 420,2013-03-16 03:30:00,
2013-03-15 23:35:00,50.1,31.3,30.04,NNW,345,1.2,2.9,49,0.00,,,0.00,WSDL version 420,2013-03-16 03:35:00,
2013-03-15 23:40:00,50.8,32.2,30.04,SW,225,0.9,4.7,49,0.00,,,0.00,WSDL version 420,2013-03-16 03:40:00,
2013-03-15 23:45:00,51.4,32.4,30.04,NNE,28,1.5,4.7,48,0.00,,,0.00,WSDL version 420,2013-03-16 03:45:00,
2013-03-15 23:50:00,52.1,32.8,30.03,NE,40,1.2,2.7,48,0.00,,,0.00,WSDL version 420,2013-03-16 03:50:00,
2013-03-15 23:55:00,52.0,32.7,30.03,ENE,68,2.2,3.8,48,0.00,,,0.00,WSDL version 420,2013-03-16 03:55:00,